Погода в Сараване

Лаос     15°42′58″N   106°25′09″E
темп.,
°C
ветер,
м/с
пор.,
м/с
влажн.,
%
обл.,
%
осадки,
мм/ч
давл.,
гПа
погр.,
м
10 августа, ср
ср1001:00+22з12100100 1.0 1005129
04:00+21з12100100 1.9 1005213
07:00+21с0099100 2.1 100667
10:00+22з1199100 0.8 1007145
13:00+22сз0199100 3.6 1005111
16:00+25юв1183100 0.2 1004474
19:00+22юв1198100 0.3 100531
22:00+22вюв129699 0.0 100763
11 августа, чт
чт1101:00+22вюв1298100 0.2 100686
04:00+22юв1199100 0.4 100557
07:00+22в0199100 2.4 100646
10:00+24ююз0295100 1.7 1007308
13:00+25зюз1293100 4.7 1004536
16:00+25юз0196100 3.0 1004203
19:00+23вюв1198100 6.5 100532
22:00+22вюв1399100 2.2 1008122
12 августа, пт
пт1201:00+22вюв1299100 2.6 100791
04:00+22вюв1199100 0.8 100656
07:00+23юв129766 2.7 100893
10:00+25ююв128997 3.4 1009626
13:00+26зсз1292100 6.6 1007524
16:00+25з019596 4.0 1006108
19:00+23в1197100 6.0 100811
22:00+22вюв1199100 1.4 101033
13 августа, сб
сб1301:00+21вюв1299100 1.4 100947
04:00+21вюв1299100 0.0 100847
07:00+22вюв129796 0.1 1010125
10:00+27ююв1178100 0.8 1010738
13:00+27сз018853 5.4 1007438
16:00+26сз0192100 6.2 1006168
19:00+23св0097100 7.7 100811
22:00+23в1198100 0.0 101012
14 августа, вс
вс1401:00+22вюв1198100 0.2 100921
04:00+22вюв119999 0.5 100842
07:00+23юв1198100 0.8 100940
10:00+25ю019095 0.7 1010330
13:00+26з2391100 3.8 1007615
16:00+24ссв1197100 3.7 100739
19:00+23в1198100 4.9 100814
22:00+23вюв1198100 0.4 100916